Temperature
22 22 22 22 22 22 23 25 25 25 26 26 25 25 24 23 22 20 19 19 18 18 18 18 18 18 18 18 18 18 18 18 18 17 17 17 17 17 17 17 17 17 17 17 17 18 18 18 18
22 22 22 22 22 23 23 24 25 25 26 25 25 25 24 22 21 19 19 19 18 18 18 18 18 18 18 18 18 18 18 18 17 17 17 17 17 17 17 17 17 17 17 17 17 17 17 18 18
22 22 23 23 23 23 24 25 25 26 26 26 25 24 23 22 21 19 19 18 18 18 18 18 18 18 18 18 18 18 17 17 17 17 17 17 17 17 17 17 17 17 17 17 17 17 17 17 17
22 23 24 23 23 25 25 25 26 26 26 26 25 24 21 21 20 19 19 19 18 18 18 18 18 18 18 18 18 18 18 17 17 17 17 17 17 17 17 17 17 17 17 17 17 17 17 17 17
23 24 23 23 24 25 26 26 26 26 26 25 24 23 21 20 20 19 19 19 18 18 18 18 18 18 18 18 18 18 18 18 17 17 17 17 17 17 17 17 17 17 17 17 17 17 17 17 17
23 24 23 23 24 25 26 26 26 26 25 25 24 23 20 20 19 19 19 19 18 18 18 18 18 18 18 18 18 18 18 17 17 17 17 17 17 17 17 17 17 17 17 17 17 17 17 17 17
24 23 23 24 23 24 26 26 26 25 25 25 24 22 20 20 19 19 19 19 18 18 18 18 18 18 18 18 18 17 17 17 17 17 17 17 17 17 17 17 17 17 17 17 17 17 17 17 17
24 24 24 24 23 24 26 26 25 25 24 24 24 22 20 20 19 19 19 19 19 18 18 18 18 18 18 18 17 17 17 17 17 17 17 17 16 17 17 17 17 17 17 17 17 17 17 17 17
24 23 23 24 24 25 26 26 25 25 24 24 23 22 21 20 19 19 19 19 19 18 18 18 18 18 17 17 17 17 17 17 17 17 17 16 16 16 16 16 16 16 16 16 16 16 16 16 16
25 23 24 25 25 25 26 26 25 25 24 23 22 21 20 20 19 19 19 19 19 18 18 18 18 18 17 17 17 17 17 17 17 17 17 17 16 16 16 16 16 16 16 16 16 16 16 16 16
25 24 25 25 25 25 25 25 25 25 23 23 22 21 20 20 20 19 19 19 19 19 18 18 18 18 18 17 17 17 17 17 17 17 17 17 16 16 16 16 16 16 16 16 16 16 16 16 16
25 25 25 25 25 25 25 24 24 24 23 23 22 21 21 20 20 20 19 19 19 19 18 18 18 18 18 17 17 17 17 17 17 17 16 16 16 16 16 16 16 16 16 16 16 16 16 16 16
25 25 25 25 25 25 24 24 24 23 23 23 22 21 21 21 20 20 20 19 19 18 18 18 18 18 18 17 17 17 17 17 17 16 16 16 16 16 16 16 16 16 16 16 16 16 16 16 16
26 25 25 25 25 25 24 24 24 23 23 23 22 21 21 21 20 20 20 19 19 19 18 18 18 18 17 17 17 17 16 16 16 16 16 16 16 16 16 16 16 16 16 16 16 16 15 15 15
26 25 25 25 25 25 24 23 23 23 23 23 22 22 21 21 21 20 20 19 19 19 18 18 18 17 17 17 17 16 16 16 16 16 16 16 16 16 16 16 16 16 15 15 15 15 15 15 15
26 25 23 24 25 25 24 22 23 23 23 23 22 22 21 21 21 20 20 20 19 19 18 18 18 17 17 17 17 16 16 16 16 16 16 16 16 16 16 16 15 15 15 15 15 15 15 15 15
24 24 23 24 25 25 24 22 23 23 23 23 22 22 21 21 21 20 20 20 19 19 18 18 17 17 17 17 17 16 16 16 16 16 16 16 16 15 15 15 15 15 15 15 15 15 15 15 15
24 24 24 24 25 25 24 23 23 23 23 23 22 22 21 21 20 20 20 19 19 19 18 18 17 17 17 17 17 16 16 16 16 16 15 15 15 15 15 15 15 15 15 14 14 14 14 14 14
25 25 24 25 26 25 24 24 23 23 23 23 22 22 21 21 20 20 20 19 19 18 18 18 17 17 17 17 16 16 16 16 16 15 15 15 15 15 15 15 15 14 14 14 14 14 14 14 14
25 24 25 25 26 25 24 24 24 24 23 23 22 22 21 21 20 20 20 19 19 18 18 18 17 17 17 16 16 16 16 16 15 15 15 15 15 15 15 15 14 14 14 14 14 14 14 14 14
25 25 25 24 25 25 24 23 24 24 23 23 22 22 21 21 20 19 19 19 18 18 18 17 17 17 17 16 16 16 16 15 15 15 15 15 15 15 15 14 14 14 14 14 14 14 14 14 14
24 26 25 25 24 23 24 22 23 23 23 22 22 22 21 21 20 19 19 19 18 18 18 17 17 17 16 16 16 16 16 15 15 15 15 15 14 14 14 14 14 14 14 14 14 14 13 13 13
25 26 25 25 24 23 24 23 23 24 22 22 22 22 21 21 20 19 19 19 18 18 17 17 17 16 16 16 16 16 15 15 15 15 15 14 14 14 14 14 14 14 14 14 14 13 13 13 13
26 25 25 25 24 22 24 24 22 23 23 22 22 22 21 20 20 19 19 18 18 17 17 17 17 16 16 16 16 16 15 15 15 15 14 14 14 14 14 14 14 14 14 13 13 13 13 13 13
25 23 22 22 21 22 24 24 23 24 24 23 23 22 21 20 20 19 18 18 18 17 17 17 17 16 16 16 16 15 15 15 15 15 14 14 14 14 14 14 14 14 14 13 13 13 13 13 13
24 24 21 21 22 22 24 23 23 24 24 23 23 22 21 20 20 19 18 18 18 17 17 17 16 16 16 16 16 15 15 15 15 14 14 14 14 14 14 13 13 13 13 13 13 13 13 13 13
24 24 24 23 23 22 23 23 23 23 23 23 22 22 21 20 20 19 18 18 17 17 17 16 16 16 15 15 15 15 15 15 14 14 14 14 14 14 13 13 13 13 13 13 13 13 13 12 12
24 24 23 22 21 21 22 23 22 22 22 22 22 21 21 20 20 19 18 18 17 17 17 16 16 16 15 15 15 15 15 14 14 14 14 14 14 13 13 13 13 13 13 13 13 12 12 12 12
23 23 23 22 22 21 21 21 23 22 22 22 21 21 20 20 19 18 18 17 17 17 16 16 16 15 15 15 15 14 14 14 14 14 14 13 13 13 13 13 13 12 12 12 12 12 12 12 12
23 23 22 21 21 22 21 21 23 22 22 22 21 21 20 19 19 18 18 17 17 16 16 16 15 15 15 15 14 14 14 14 14 13 13 13 13 13 13 13 12 12 12 12 12 12 12 12 11
Wind_Speed
9 10 7 2 2 1 3 5 8 7 7 9 9 9 12 13 8 8 3 6 10 11 12 12 11 11 11 11 11 12 11 11 11 11 11 10 10 9 9 9 9 9 10 10 10 10 10 10 10
9 6 4 3 2 1 4 6 9 9 8 7 8 10 13 12 11 8 5 6 9 11 11 12 11 11 11 11 11 11 11 11 11 11 11 10 10 9 9 9 9 9 10 10 10 9 10 9 9
10 7 4 2 1 2 4 8 9 8 7 6 7 10 8 7 9 6 6 6 9 11 13 12 11 11 11 11 11 11 11 11 10 10 10 10 10 9 9 9 9 9 9 9 9 9 9 9 8
5 3 3 0 3 6 6 7 7 7 7 6 7 9 8 8 6 8 8 8 10 11 13 12 11 10 10 11 11 11 11 11 11 10 10 10 10 9 9 10 9 9 9 9 9 9 9 8 8
4 3 1 1 4 5 6 7 7 6 7 8 10 10 9 10 11 10 7 8 9 10 12 12 11 11 11 11 11 10 11 11 10 10 10 10 10 10 10 10 10 9 9 9 9 8 8 8 7
3 2 1 2 4 5 5 5 6 7 7 7 9 9 7 9 9 8 7 7 8 9 11 11 11 11 10 10 10 10 10 10 9 9 9 9 9 9 10 10 9 9 9 8 8 7 7 7 6
3 2 1 3 4 4 5 5 6 6 7 6 6 8 8 9 8 7 7 7 7 8 8 9 10 10 10 10 9 9 9 9 8 8 8 7 8 9 9 9 9 9 8 8 7 7 6 6 5
3 2 1 2 3 3 4 5 6 7 6 5 5 6 7 9 9 8 7 6 6 6 6 6 8 9 9 9 9 8 8 7 6 6 6 6 7 8 9 9 8 7 7 6 6 6 5 4 4
3 1 1 2 3 3 4 5 5 6 7 8 9 10 12 12 10 8 6 6 5 5 4 5 5 5 8 8 8 7 7 5 5 5 4 4 4 6 6 8 7 6 6 5 4 4 4 3 2
2 1 1 3 2 3 4 4 4 5 7 8 11 12 13 11 9 8 7 6 6 5 4 4 5 4 6 5 6 4 4 5 4 4 3 3 4 6 6 7 7 6 4 4 3 2 2 2 1
2 1 2 3 3 3 3 4 4 4 5 6 10 12 11 10 8 7 6 5 5 5 5 4 4 4 5 3 4 3 3 2 2 4 5 5 5 5 5 4 4 4 4 2 2 1 1 2 4
2 2 2 1 3 3 3 3 3 4 5 7 10 11 10 9 8 7 6 5 5 5 5 4 3 4 4 4 3 3 2 2 3 4 6 4 2 2 3 2 2 2 2 2 2 2 3 5 5
3 2 3 2 3 3 5 4 3 4 5 7 10 10 9 9 7 6 7 6 6 5 5 4 4 4 4 3 1 3 3 3 3 3 5 5 2 2 2 2 3 3 3 2 2 3 5 4 5
3 4 4 4 4 4 4 3 3 4 5 7 9 9 8 7 7 6 5 5 6 5 5 4 4 3 3 3 2 3 3 3 3 3 4 5 3 3 2 3 2 3 3 3 3 4 3 3 4
5 5 4 5 5 5 4 3 4 6 6 7 8 8 8 6 6 6 5 5 5 5 6 5 3 3 4 3 2 3 3 4 3 3 4 5 5 4 3 3 2 3 4 4 4 4 3 3 3
6 6 5 6 6 6 5 3 4 7 7 6 7 7 7 6 6 5 5 5 6 5 5 4 3 3 3 3 2 2 3 3 3 4 4 5 6 6 4 2 2 4 4 4 3 3 3 3 3
7 7 7 7 7 6 6 4 5 6 7 7 7 8 7 7 6 5 5 5 6 6 6 5 3 3 3 3 3 3 3 3 3 3 4 4 5 6 4 2 2 5 4 3 3 3 2 2 2
6 6 6 6 7 6 6 5 6 7 7 7 7 7 7 7 6 5 5 6 5 5 5 5 4 3 3 2 2 2 3 2 3 3 3 4 4 5 4 2 3 4 3 3 3 3 3 2 2
6 7 6 4 5 6 6 6 7 8 8 7 6 6 7 7 6 5 5 5 6 6 5 5 4 4 4 2 2 2 2 1 2 2 3 3 4 5 4 3 3 3 2 2 3 3 3 2 2
9 9 6 3 3 4 6 6 6 8 8 7 7 7 8 7 6 5 5 5 4 5 5 5 4 4 4 3 2 2 2 1 2 2 3 3 3 4 3 2 2 3 2 2 3 2 2 1 1
10 8 5 3 4 7 6 7 8 8 7 7 5 5 6 7 8 7 6 6 5 4 4 5 4 4 4 4 2 2 2 2 2 2 1 2 3 4 4 3 2 2 2 1 1 2 2 1 1
8 6 5 5 6 6 8 6 6 8 8 7 6 5 6 5 5 6 6 5 5 4 3 3 3 4 4 4 3 3 2 1 1 2 1 1 2 3 3 3 3 2 2 2 1 1 1 1 1
7 5 7 9 9 9 10 7 4 7 8 8 8 7 6 5 5 5 5 4 4 4 4 3 3 3 4 4 4 3 2 2 1 2 2 1 1 2 3 3 2 2 2 1 1 2 1 1 1
7 8 9 9 8 10 11 8 3 5 7 9 9 8 7 6 5 5 5 5 4 3 4 4 4 3 3 4 4 4 4 3 2 2 2 1 1 1 2 2 2 2 1 1 1 1 1 1 1
8 6 4 5 6 7 6 5 3 5 5 7 8 9 7 6 6 5 5 5 4 3 3 4 4 4 4 4 4 4 5 4 4 3 2 1 1 1 1 1 1 1 1 1 1 1 1 0 1
9 9 6 4 4 3 4 4 5 7 6 7 7 8 7 7 6 6 6 5 5 4 3 3 4 4 4 4 4 4 4 3 2 2 2 2 1 1 1 1 1 1 2 1 1 1 0 0 1
7 8 9 8 9 6 4 4 6 7 7 6 6 7 5 5 6 6 6 6 5 4 4 4 4 4 3 4 4 3 3 3 2 2 2 2 1 1 1 1 1 2 2 1 1 1 0 0 1
8 7 5 5 5 5 4 4 5 8 7 6 5 5 5 4 5 5 5 5 5 4 4 4 4 4 3 3 3 3 3 3 2 2 1 1 2 1 2 1 1 1 2 1 1 1 0 1 1
7 7 6 5 6 4 3 1 2 5 6 6 5 4 5 4 4 4 5 4 4 4 4 3 4 4 3 3 2 3 3 2 2 2 1 1 1 1 1 1 1 1 1 1 1 1 1 1 1
6 7 7 5 5 6 4 0 5 5 4 5 4 4 4 4 4 4 5 4 4 3 3 3 3 4 3 3 3 3 3 2 2 1 1 1 1 1 1 1 1 1 0 0 1 1 0 1 1
Wind_Direction
270 251 243 249 265 232 68 68 71 59 61 57 52 64 66 55 57 90 120 89 95 99 99 88 76 74 72 71 71 74 73 72 73 74 76 80 79 77 78 77 75 74 75 76 73 70 72 70 69
271 273 264 242 250 124 84 81 77 69 73 77 68 68 72 65 74 97 102 90 100 101 97 88 82 77 74 72 73 74 73 73 72 74 77 80 79 77 79 80 80 79 78 77 75 71 71 70 69
263 264 260 253 346 62 87 85 89 86 76 77 76 65 58 69 78 100 113 113 102 96 94 94 88 81 77 75 75 75 74 74 75 75 77 77 78 79 80 81 82 83 81 78 76 75 74 72 70
263 256 249 222 56 64 85 95 102 97 89 76 83 77 72 57 81 107 120 112 103 101 100 101 95 88 83 80 78 77 76 75 75 75 75 74 75 79 82 83 81 82 82 80 77 77 75 73 68
246 256 235 110 85 72 75 84 94 88 84 77 83 92 87 81 94 103 106 106 107 106 107 109 105 97 91 85 81 81 79 78 76 76 75 75 76 79 84 83 80 78 79 80 79 76 77 74 68
272 259 221 128 97 82 77 80 91 93 92 92 99 99 95 104 101 105 102 100 103 108 110 114 115 108 101 95 88 86 84 81 80 81 80 80 78 83 87 84 82 78 78 81 80 79 81 77 69
265 263 204 122 105 93 87 81 82 87 82 80 99 102 114 114 108 110 102 99 98 103 114 123 128 121 113 106 100 97 93 90 89 91 92 93 92 93 94 88 85 83 82 84 86 88 89 84 73
283 279 148 121 118 101 87 84 79 85 81 78 80 104 125 128 127 119 111 107 107 108 113 124 135 133 129 123 117 116 110 107 110 109 107 113 107 100 101 98 93 93 93 94 97 100 100 96 86
260 271 119 119 124 121 113 109 106 104 99 85 74 89 118 126 130 127 119 109 103 103 109 113 114 115 123 127 127 135 133 136 140 140 136 127 115 107 109 108 113 111 111 112 114 120 119 117 107
215 233 123 94 101 114 120 112 123 122 107 102 98 102 118 127 132 132 129 128 124 119 108 100 103 105 105 106 121 136 135 152 159 130 132 141 113 99 104 116 128 136 137 135 137 144 141 151 141
169 164 69 81 97 105 111 87 75 105 102 111 123 127 132 137 139 138 131 125 121 113 100 93 91 95 94 92 98 82 73 94 102 100 93 81 91 105 111 121 131 141 146 132 114 139 129 95 86
184 133 103 119 109 121 126 115 90 84 89 106 124 137 143 145 142 139 131 123 119 107 103 97 92 95 87 82 88 93 82 61 48 49 84 74 60 76 89 91 101 114 105 87 97 81 69 66 70
197 163 154 133 119 128 120 119 115 106 112 122 129 137 143 144 140 142 141 138 126 121 116 108 92 90 91 89 92 92 83 75 70 42 77 73 63 63 67 75 59 62 73 76 63 69 58 51 50
182 179 166 163 160 155 143 147 167 150 147 144 144 146 148 144 144 139 138 136 133 136 123 99 97 97 97 93 81 87 86 82 70 52 65 83 73 65 59 70 56 56 51 58 72 75 75 58 51
202 193 185 182 188 177 166 189 202 165 163 161 157 153 148 152 149 145 145 142 140 134 124 115 109 92 86 85 74 78 69 67 64 54 54 67 71 67 60 59 51 47 47 51 57 61 63 68 57
214 211 208 200 202 191 204 207 191 175 169 166 160 155 154 161 162 156 153 146 137 130 114 112 116 101 97 93 82 81 76 73 71 58 51 55 65 67 54 56 48 50 49 49 51 61 60 57 51
222 218 204 194 201 196 205 196 173 177 174 173 171 163 172 168 167 157 151 143 138 132 129 128 113 107 100 101 93 84 79 80 72 59 50 53 63 75 66 52 50 54 48 44 50 48 61 60 56
235 228 210 204 182 192 201 196 179 188 189 182 176 168 171 167 170 158 150 145 134 129 135 133 125 122 112 98 95 84 74 74 82 74 61 57 54 67 73 62 62 62 59 44 59 52 43 52 59
268 255 232 214 174 196 207 203 194 193 188 183 180 177 178 171 164 152 150 141 143 148 139 131 135 132 121 105 94 93 88 73 73 81 79 72 64 70 67 60 61 62 67 64 77 80 64 51 58
249 255 249 214 189 224 219 222 204 196 189 184 187 183 176 166 160 156 146 138 151 147 141 143 136 130 125 124 126 122 109 97 85 60 52 51 66 76 79 87 83 72 57 55 79 82 70 22 19
250 251 244 232 219 236 237 239 222 193 185 176 182 177 166 166 164 161 158 151 152 148 154 153 150 146 140 132 119 99 89 87 81 77 51 29 60 77 66 64 84 101 99 71 72 88 89 60 357
251 258 258 249 245 247 231 245 218 184 177 170 175 180 168 165 156 150 157 153 152 152 150 152 159 149 139 134 133 138 136 135 128 129 142 91 69 78 81 74 67 81 87 78 37 74 86 95 19
257 262 257 252 252 259 250 252 217 177 178 178 175 173 167 165 153 148 150 147 141 143 153 172 169 148 144 149 149 157 149 141 129 119 121 110 92 90 91 86 84 80 84 85 54 57 62 85 83
258 259 255 246 250 253 244 239 212 184 180 174 166 160 166 163 154 151 146 140 141 134 161 172 171 155 146 159 163 164 155 155 140 128 123 133 129 105 100 96 93 92 96 88 70 74 52 58 87
242 253 250 230 223 240 233 225 182 138 137 152 154 157 158 152 155 148 143 149 148 152 159 172 165 162 163 175 176 174 165 173 166 166 165 164 132 108 118 84 103 95 87 99 96 117 143 153 148
232 233 235 250 252 259 240 213 130 120 112 117 126 134 140 148 152 148 156 156 154 159 161 162 173 174 172 183 190 170 158 163 168 172 147 161 162 172 164 125 124 111 82 63 65 77 120 102 127
242 243 256 271 281 274 226 166 138 128 123 123 126 128 137 148 147 148 153 152 154 161 167 177 173 168 172 190 178 165 156 144 146 161 141 145 154 176 128 122 122 113 100 81 89 85 30 40 71
251 258 263 257 273 273 255 215 165 158 147 131 134 137 136 135 129 130 132 140 153 156 162 169 168 170 169 182 174 163 151 149 151 161 160 159 163 150 144 147 141 125 109 101 103 105 66 77 36
235 242 248 260 260 270 268 282 105 141 142 144 145 132 129 127 127 128 130 138 137 140 146 154 167 166 165 167 159 152 141 148 151 166 165 143 115 123 155 163 176 138 134 136 134 136 137 162 211
242 247 251 253 271 278 277 163 89 105 112 120 124 133 131 129 125 121 130 133 132 143 154 158 176 168 159 165 162 158 153 145 140 140 133 117 108 132 157 161 159 137 128 119 131 150 181 185 197
Height
1485 1485 1486 1487 1488 1491 1491 1485 1481 1482 1483 1485 1485 1486 1490 1494 1499 1510 1510 1509 1508 1507 1507 1507 1506 1506 1506 1506 1506 1506 1506 1507 1507 1507 1508 1508 1509 1509 1509 1510 1510 1510 1511 1512 1512 1513 1513 1514 1515
1485 1486 1488 1487 1490 1498 1494 1484 1484 1485 1485 1486 1487 1489 1492 1498 1502 1506 1508 1509 1509 1509 1508 1508 1508 1508 1508 1508 1508 1508 1508 1508 1509 1509 1509 1509 1510 1510 1511 1511 1511 1512 1512 1513 1513 1514 1515 1515 1516
1485 1487 1488 1486 1489 1493 1493 1484 1484 1485 1487 1487 1489 1492 1496 1502 1505 1507 1509 1510 1510 1510 1509 1509 1509 1509 1509 1509 1509 1509 1510 1510 1510 1510 1510 1511 1511 1511 1512 1512 1512 1513 1513 1514 1514 1515 1516 1516 1517
1487 1488 1486 1487 1491 1485 1484 1483 1484 1485 1487 1488 1490 1495 1501 1505 1506 1508 1509 1511 1511 1511 1511 1511 1511 1511 1511 1511 1511 1511 1511 1511 1511 1511 1512 1512 1512 1512 1512 1513 1513 1514 1514 1515 1516 1516 1517 1517 1518
1487 1487 1488 1491 1489 1484 1482 1483 1485 1487 1488 1490 1493 1499 1504 1507 1508 1509 1510 1511 1512 1512 1512 1512 1512 1512 1512 1512 1512 1512 1512 1512 1513 1513 1513 1513 1513 1513 1513 1514 1514 1515 1515 1516 1517 1517 1518 1518 1519
1487 1485 1492 1496 1490 1485 1484 1485 1486 1488 1490 1492 1495 1499 1506 1509 1509 1510 1511 1512 1513 1513 1514 1514 1514 1514 1514 1514 1514 1514 1514 1514 1514 1514 1514 1514 1514 1514 1514 1514 1515 1516 1516 1517 1517 1518 1519 1519 1520
1487 1487 1491 1491 1492 1489 1485 1486 1487 1490 1492 1494 1496 1500 1507 1509 1510 1511 1512 1513 1514 1515 1515 1515 1515 1515 1516 1516 1516 1515 1515 1515 1515 1515 1515 1515 1515 1515 1515 1515 1516 1516 1517 1518 1518 1519 1520 1520 1521
1486 1486 1488 1490 1492 1491 1487 1487 1489 1491 1494 1496 1497 1500 1506 1509 1510 1512 1513 1514 1515 1516 1516 1517 1517 1517 1517 1517 1517 1517 1517 1517 1517 1517 1516 1516 1516 1516 1516 1517 1517 1517 1518 1519 1519 1520 1521 1521 1522
1486 1489 1492 1490 1491 1489 1487 1489 1491 1493 1495 1497 1499 1501 1505 1509 1511 1512 1514 1515 1516 1517 1517 1518 1518 1519 1519 1519 1519 1519 1519 1518 1518 1518 1518 1518 1518 1518 1518 1518 1518 1519 1519 1520 1520 1521 1521 1522 1523
1485 1491 1488 1485 1485 1486 1488 1489 1491 1493 1496 1499 1502 1504 1507 1509 1511 1513 1514 1515 1516 1518 1519 1519 1519 1520 1520 1520 1520 1520 1520 1520 1520 1520 1519 1519 1520 1520 1520 1520 1520 1520 1520 1521 1522 1522 1522 1523 1524
1483 1486 1485 1485 1486 1487 1489 1491 1492 1493 1497 1499 1502 1505 1508 1509 1511 1513 1514 1516 1517 1518 1519 1520 1520 1520 1521 1521 1521 1521 1521 1521 1521 1521 1521 1521 1521 1521 1521 1521 1521 1521 1521 1522 1522 1523 1523 1524 1524
1483 1484 1485 1486 1487 1488 1490 1492 1494 1495 1498 1500 1502 1505 1507 1509 1511 1513 1514 1516 1517 1518 1519 1520 1521 1521 1521 1521 1522 1522 1522 1522 1522 1522 1522 1522 1522 1522 1522 1522 1522 1522 1523 1523 1523 1523 1524 1524 1525
1483 1484 1486 1487 1488 1489 1491 1493 1495 1497 1499 1501 1503 1505 1507 1509 1511 1513 1515 1516 1517 1518 1519 1520 1521 1521 1521 1522 1522 1522 1522 1522 1522 1523 1523 1523 1523 1523 1523 1523 1523 1523 1524 1524 1524 1525 1525 1525 1525
1483 1484 1486 1487 1488 1490 1491 1494 1495 1497 1499 1500 1502 1505 1507 1509 1511 1512 1514 1516 1517 1518 1519 1520 1521 1521 1522 1522 1522 1522 1523 1523 1523 1523 1524 1523 1523 1523 1523 1523 1523 1524 1524 1524 1525 1525 1525 1525 1526
1482 1484 1486 1486 1487 1489 1491 1495 1495 1496 1498 1500 1502 1504 1506 1508 1510 1511 1513 1515 1516 1518 1519 1520 1521 1521 1522 1522 1522 1522 1523 1523 1523 1523 1524 1524 1524 1524 1524 1524 1524 1524 1524 1524 1525 1525 1526 1526 1526
1481 1485 1491 1486 1485 1487 1493 1500 1494 1495 1497 1499 1501 1503 1505 1507 1509 1511 1512 1514 1515 1517 1518 1519 1520 1521 1522 1522 1523 1523 1523 1523 1523 1523 1524 1524 1524 1524 1524 1524 1524 1525 1525 1525 1525 1525 1526 1526 1526
1483 1489 1490 1486 1482 1484 1489 1495 1493 1493 1495 1497 1499 1501 1504 1506 1508 1510 1512 1513 1515 1517 1518 1518 1519 1520 1521 1522 1522 1523 1523 1523 1524 1524 1524 1524 1524 1524 1524 1525 1525 1525 1525 1525 1525 1526 1526 1526 1526
1487 1484 1485 1484 1480 1482 1487 1491 1491 1492 1493 1495 1497 1499 1502 1504 1506 1508 1510 1512 1514 1516 1517 1518 1519 1520 1520 1521 1522 1523 1523 1523 1524 1524 1524 1524 1525 1524 1525 1525 1525 1525 1525 1525 1525 1525 1526 1526 1527
1479 1481 1483 1480 1477 1481 1485 1488 1488 1489 1491 1493 1495 1497 1500 1502 1505 1507 1509 1511 1513 1515 1516 1517 1518 1519 1519 1520 1521 1522 1523 1523 1524 1524 1524 1525 1525 1524 1525 1525 1525 1525 1525 1525 1525 1525 1526 1526 1526
1478 1481 1481 1478 1475 1479 1483 1484 1483 1485 1487 1490 1492 1495 1497 1500 1503 1505 1507 1509 1511 1513 1514 1516 1517 1518 1518 1519 1520 1521 1522 1523 1523 1524 1524 1524 1524 1524 1525 1525 1524 1524 1524 1525 1525 1525 1525 1526 1526
1476 1478 1479 1480 1478 1478 1483 1487 1483 1481 1484 1488 1491 1493 1495 1498 1500 1503 1505 1507 1509 1511 1513 1514 1515 1517 1518 1518 1520 1521 1521 1522 1522 1523 1523 1524 1524 1524 1524 1524 1524 1524 1524 1524 1525 1525 1525 1525 1526
1478 1471 1473 1477 1484 1487 1482 1495 1482 1478 1482 1485 1489 1491 1494 1496 1499 1501 1503 1505 1507 1509 1511 1513 1514 1515 1516 1517 1518 1519 1520 1520 1521 1522 1523 1523 1523 1523 1523 1523 1523 1523 1524 1524 1524 1524 1525 1525 1525
1471 1469 1471 1474 1480 1483 1479 1486 1483 1475 1481 1483 1485 1489 1491 1494 1497 1499 1501 1503 1505 1507 1509 1511 1512 1513 1514 1515 1517 1518 1519 1520 1521 1521 1522 1522 1522 1522 1523 1523 1523 1523 1523 1523 1523 1524 1524 1524 1524
1467 1470 1470 1471 1478 1491 1478 1482 1486 1476 1476 1478 1482 1486 1490 1492 1495 1497 1499 1501 1503 1505 1507 1508 1510 1511 1512 1513 1515 1516 1517 1518 1519 1520 1520 1521 1521 1521 1522 1522 1522 1522 1522 1522 1522 1523 1523 1523 1523
1469 1478 1490 1492 1494 1488 1470 1476 1480 1470 1470 1474 1478 1483 1487 1490 1493 1496 1497 1499 1502 1503 1504 1506 1507 1508 1510 1511 1513 1514 1515 1516 1517 1518 1519 1519 1519 1520 1520 1520 1520 1520 1521 1521 1521 1521 1522 1522 1522
1470 1475 1493 1500 1493 1484 1473 1477 1474 1467 1469 1473 1477 1481 1485 1488 1491 1493 1496 1497 1500 1501 1502 1503 1505 1506 1507 1509 1511 1512 1513 1514 1515 1516 1517 1517 1518 1518 1519 1519 1519 1519 1519 1519 1519 1520 1520 1521 1521
1470 1471 1469 1478 1479 1484 1477 1472 1472 1468 1471 1474 1477 1480 1484 1487 1489 1491 1493 1495 1497 1499 1500 1501 1503 1504 1505 1507 1509 1510 1511 1512 1514 1515 1515 1516 1516 1517 1517 1517 1518 1518 1518 1518 1518 1518 1518 1519 1520
1465 1467 1472 1479 1489 1491 1481 1475 1477 1474 1473 1475 1477 1480 1483 1486 1488 1490 1492 1494 1496 1497 1498 1499 1500 1502 1503 1505 1506 1508 1509 1510 1511 1512 1513 1514 1514 1515 1515 1516 1516 1516 1516 1516 1517 1517 1517 1517 1518
1468 1469 1471 1474 1476 1486 1492 1486 1466 1469 1470 1474 1476 1479 1482 1485 1487 1489 1491 1493 1494 1496 1497 1498 1499 1500 1501 1502 1504 1505 1507 1508 1509 1510 1511 1512 1512 1513 1513 1514 1514 1514 1514 1515 1515 1515 1515 1515 1516
1464 1468 1471 1482 1481 1476 1483 1486 1465 1468 1470 1472 1476 1478 1481 1484 1486 1488 1489 1491 1493 1494 1495 1496 1497 1498 1499 1500 1502 1503 1504 1506 1507 1508 1509 1510 1510 1511 1511 1512 1512 1512 1513 1513 1513 1513 1513 1514 1514